Regional Weather Roundup
Issued by NWS Portland, ME

Current Version | Previous Version | Text Only | Print | Product List | Glossary Off
Versions: 1 2 3 4 5 6 7 8 9 10 11 12 13 14 15 16 17 18 19 20 21 22 23 24 25 26 27 28 29 30 31 32 33 34 35 36 37 38 39 40 41 42 43 44 45 46 47 48 49 50
000 ASUS41 KGYX 270205 RWRGYX WEATHER ROUNDUP FOR MAINE AND NEW HAMPSHIRE NATIONAL WEATHER SERVICE GRAY ME 1000 PM EDT WED APR 26 2017 MEZ002-005-006-010-012-015-018-020-021-024-026-027-029-270300- MAINE CITY SKY/WX TMP DP RH WIND PRES REMARKS PORTLAND FOG 51 50 96 E10 29.90S VSB 3/4 SANFORD LGT RAIN 52 52 100 NE6 29.88S FOG BAR HARBOR CLOUDY 54 53 97 S23G29 29.98F FOG WISCASSET CLOUDY 55 54 96 VRB5 29.93F ROCKLAND LGT RAIN 49 49 100 E8 29.94F FOG FRYEBURG CLOUDY 53 53 100 N6 29.91S FOG LEWISTONAUBURN LGT RAIN 53 53 100 E3 29.91F FOG AUGUSTA CLOUDY 54 52 93 E3 29.93F FOG WATERVILLE LGT RAIN 55 54 96 S3 29.92S FOG BANGOR LGT RAIN 55 55 100 SE5 29.97F FOG GREENVILLE N/A 52 52 100 SE10 29.93S MILLINOCKET LGT RAIN 55 55 100 E3 29.98S FOG HOULTON LGT RAIN 57 57 100 SE5 29.99F FOG PRESQUE ISLE CLOUDY 54 53 97 SE6 29.99F FRENCHVILLE FOG 50 48 93 SE12 29.97F VSB 1/4 CARIBOU FOG 54 53 97 SE3 29.98F VSB 1/2 $$ NHZ002-005-008-009-011-012-014-270300- NEW HAMPSHIRE CITY SKY/WX TMP DP RH WIND PRES REMARKS PORTSMOUTH DRZL/FOG 51 51 99 E6 29.85S VSB 1/4 ROCHESTER CLOUDY 53 51 93 NE6 29.86S FOG NASHUA CLOUDY 54 54 100 CALM 29.86S FOG MANCHESTER DRIZZLE 54 52 93 N7 29.84S FOG CONCORD CLOUDY 55 53 93 NE6 29.87R FOG LACONIA CLOUDY 53 52 96 E9 29.88S PLYMOUTH CLOUDY 54 52 92 CALM 29.88S BERLIN CLOUDY 54 50 86 CALM 29.90S WHITEFIELD CLOUDY 56 49 77 E10 29.87S JAFFREY CLOUDY 54 54 100 CALM 29.86S FOG KEENE CLOUDY 55 53 93 NE3 29.87R LEBANON CLOUDY 56 54 93 CALM 29.87R MT WASHINGTON FOG 46 46 100 SE37 N/A VSB 0 $$ VTZ005-007-008-270300- VERMONT CITY SKY/WX TMP DP RH WIND PRES REMARKS ST JOHNSBURY N/A 57 53 86 MISG 29.86R MONTPELIER CLOUDY 55 55 100 CALM 29.91R BURLINGTON CLOUDY 61 54 77 SE12 29.81R $$ MAZ007-012-024-CTZ003-RIZ002-NYZ038-NYZ072-270300- SOUTHERN NEW ENGLAND AND NY CITY SKY/WX TMP DP RH WIND PRES REMARKS BOSTON FOG 50 50 100 N8 29.83R VSB 1/16 WORCESTER CLOUDY 53 52 96 NW5 29.85R FOG NANTUCKET FOG 50 49 96 S7 29.84S VSB 1/4 PROVIDENCE CLOUDY 58 58 100 SW3 29.83R FOG HARTFORD DRIZZLE 57 57 100 N6 29.84S FOG ALBANY CLOUDY 63 54 72 SE7 29.83R NEW YORK CITY CLOUDY 61 56 83 E6 29.83R $$ ANZ081-ANZ082-ANZ150-NHZ014-MEZ023>029-270300- COASTAL MARINE OBSERVATIONS STATION/POSITION TIME TEMP WIND PRES WAVE AIR SEA DIR/SP/G HT/PER (UTC) (F) (DEG/KT/KT) (MB) (FT/S) MOUNT DESERT ROC 0100 45 1015.2R MATINICUS ROCK 0100 47 130/ 24/ 25 1013.0R ISLE OF SHOALS 0100 48 50/ 9/ 11 1010.4F JEFFREYS LEDGE 0106 44 N/A 7/ 8 CASHES LEDGE BUO 0050 47 43 1012.5 8/12 GEORGES BANK BUO 0050 53 42 1014.6 12/11 $$ .............KEY.............. WCI - WIND CHILL TC - TEMPERATURE IN CELSIUS VSB - VISIBILITY IN MILES HX - HEAT INDEX FAIR- INDICATES FEW OR NO CLOUDS BELOW 12,000 FT, WITH NO SIGNIFICANT WEATHER AND/OR OBSTRUCTIONS TO VISIBILITY.

USA.gov is the U.S. government's official web portal to all federal, state and local government web resources and services.